Regional Weather Roundup
Issued by NWS Jackson, KY

Home | Current Version | Previous Version | Graphics & Text | Print | Product List | Glossary On
Versions: 1 2 3 4 5 6 7 8 9 10 11 12 13 14 15 16 17 18 19 20 21 22 23 24 25 26 27 28 29 30 31 32 33 34 35 36 37 38 39 40 41 42 43 44 45 46 47 48 49 50
000
ASUS43 KJKL 190219
RWRJKL

EAST KENTUCKY HOURLY WEATHER ROUNDUP
NATIONAL WEATHER SERVICE JACKSON KY
1000 PM EDT FRI APR 18 2014

NOTE: "FAIR" INDICATES FEW OR NO CLOUDS BELOW 12,000 FEET WITH
NO SIGNIFICANT WEATHER AND/OR OBSTRUCTIONS TO VISIBILITY.

* THESE REPORTS ARE NOT UNDER NWS QUALITY CONTROL AND MAY NOT
  REPORT WEATHER SUCH AS PRECIPITATION AND FOG.

KYZ079-080-083-085-087-088-110-112-115-119-120-190300
...EASTERN KENTUCKY...

CITY           SKY/WX    TMP DP  RH WIND       PRES   REMARKS
JACKSON        CLOUDY    62  34  35 NE5       30.21R
LONDON         CLOUDY    60  43  53 N3        30.20S
SOMERSET*      CLOUDY    61  41  48 N6        30.21S
MONTICELLO*    CLOUDY    53  46  77 CALM      30.22R
MIDDLESBORO*   CLOUDY    55  44  64 CALM      30.22S
HARLAN APT*    CLOUDY    59  34  38 CALM      30.21S
BLACK MTN*       N/A     48  36  61 S1          N/A
PIKEVILLE APT* CLEAR     63  37  39 SE3       30.21S
BIG SANDY*     CLOUDY    61  39  43 CALM      30.21R
ASHLAND*       CLEAR     59  37  44 N3        30.20R
MOREHEAD APT*  PTCLDY    61  36  39 MISG      30.24R
$$

KYZ035-036-041-042-044-050-067-078-099-190300
...CENTRAL KENTUCKY...

CITY           SKY/WX    TMP DP  RH WIND       PRES   REMARKS
MT STERLING*   CLOUDY    54  43  66 CALM      30.24R
FLEMING/MASON* CLEAR     61  34  36 NE5       30.24R
DANVILLE*      CLOUDY    54  43  66 NE3       30.23R
LEXINGTON      CLOUDY    60  38  43 E5        30.22R
FRANKFORT      MOCLDY    53  41  63 CALM      30.21R
$$

KYZ091>093-OHZ055-061-077-WVZ005-015-034-035-042-190300
...SOUTHERN OHIO/WEST VIRGINIA...

CITY           SKY/WX    TMP DP  RH WIND       PRES   REMARKS
COVINGTON      MOCLDY    60  38  43 N3        30.23R
COLUMBUS       PTCLDY    60  37  42 CALM      30.23R
DAYTON         PTCLDY    59  39  47 N5        30.25R
WILMINGTON     CLOUDY    56  37  49 CALM      30.23R
HUNTINGTON     CLOUDY    63  34  33 CALM      30.20R
CHARLESTON     CLOUDY    62  39  42 CALM      30.20R
PINEVILLE*     CLOUDY    54  43  66 MISG      30.28S
BECKLEY        CLOUDY    54  31  41 S7        30.25R
BLUEFIELD      CLOUDY    56  30  37 CALM      30.25S
$$

VAZ002-007-008-TNZ017-027-036-066-071-190300
...SOUTHWEST VIRGINIA/EAST TENNESSEE...

CITY           SKY/WX    TMP DP  RH WIND       PRES   REMARKS
WISE*          CLOUDY    55  32  41 CALM      30.25S
ABINGDON*      CLOUDY    57  32  39 E6        30.23S
BRISTOL        CLOUDY    53  38  56 N3        30.22S
KNOXVILLE      CLOUDY    56  41  57 NE8       30.17S
OAK RIDGE      CLOUDY    57  42  57 CALM      30.20S
CROSSVILLE     CLOUDY    55  38  52 CALM      30.21R
NASHVILLE      CLOUDY    61  46  57 CALM      30.19R
$$

...KEY TO REMARKS...
VSB - VISIBILITY IN MILES
WCI - WIND CHILL INDEX
HX  - HEAT INDEX

$$



USA.gov is the U.S. government's official web portal to all federal, state and local government web resources and services.